Waarnemingen

Advertentie
Mijn weer
Landsort, Zweden (2567): temperatuur & dauwpunt: 19.11.2017 02:00:00 - 25.11.2017 02:00:00 (CET)Landsort, Zweden (2567): windsnelheid & windstoten: 19.11.2017 02:00:00 - 25.11.2017 02:00:00 (CET)Landsort, Zweden (2567): windrichting: 19.11.2017 02:00:00 - 25.11.2017 02:00:00 (CET)Landsort, Zweden (2567): luchtdruk: 19.11.2017 02:00:00 - 25.11.2017 02:00:00 (CET)Landsort, Zweden (2567): zicht: 19.11.2017 02:00:00 - 25.11.2017 02:00:00 (CET)Landsort, Zweden (2567): neerslag: 19.11.2017 02:00:00 - 25.11.2017 02:00:00 (CET)
Datum & Tijd tt [°C] td [°C] ff [km/u] ff [kn] fx [km/u] fx [kn] dd ppp [hPa] vv [km] rr [mm]
25.11.2017 02:00:00 5,5 4,2 18 10 25 14 W 1005,8 26 0,0
25.11.2017 01:00:00 5,7 4,6 17 9 26 14 WZW 1005,5 26 0,0
25.11.2017 00:00:00 5,8 4,2 22 12 25 14 W 1005,4 25 0,0
24.11.2017 23:00:00 5,7 4,1 18 10 25 14 W 1005,0 25 0,0
24.11.2017 22:00:00 5,8 4,6 19 11 24 13 W 1004,9 28 0,0
24.11.2017 21:00:00 5,9 4,9 18 10 22 12 W 1004,9 22 0,0
24.11.2017 20:00:00 6,3 5,1 18 10 25 14 W 1004,7 22 0,0
24.11.2017 19:00:00 6,6 5,6 18 10 30 16 WZW 1004,9 22 0,0
24.11.2017 18:00:00 6,7 5,8 22 12 32 18 ZW 1004,6 20 0,0
24.11.2017 17:00:00 6,8 5,6 22 12 36 19 ZW 1004,9 20 0,0
24.11.2017 16:00:00 7,0 5,1 23 12 38 20 ZW 1004,6 26 0,0
24.11.2017 15:00:00 6,9 4,7 25 14 40 21 ZW 1004,3 24 0,0
24.11.2017 14:00:00 6,8 5,1 25 14 43 23 WZW 1004,2 23 0,0
24.11.2017 13:00:00 7,0 4,9 28 15 47 26 ZW 1004,3 27 0,0
24.11.2017 12:00:00 7,0 5,0 32 18 50 27 ZW 1004,2 22 0,0
24.11.2017 11:00:00 7,1 5,1 36 19 50 27 ZW 1004,0 21 0,0
24.11.2017 10:00:00 7,2 5,0 39 21 53 28 ZW 1003,3 18 0,0
24.11.2017 09:00:00 7,0 5,0 36 19 58 31 ZW 1002,7 17 0,0
24.11.2017 08:00:00 6,9 4,8 36 19 61 33 ZW 1002,0 17 0,0
24.11.2017 07:00:00 7,2 4,6 41 22 61 33 ZW 1001,2 17 0,0
24.11.2017 06:00:00 7,6 4,7 40 21 58 31 ZW 1000,3 17 0,0
24.11.2017 05:00:00 7,7 4,3 36 19 54 29 ZZW 1000,2 19 0,0
24.11.2017 04:00:00 7,5 4,2 29 15 44 24 ZW 1000,1 19 0,0
24.11.2017 03:00:00 7,4 5,0 32 18 43 23 WZW 1000,0 20 0,0
24.11.2017 02:00:00 7,9 6,9 29 16 54 29 WZW 999,5 19 0,0
24.11.2017 01:00:00 7,9 7,8 30 16 54 29 ZW 998,6 17 0,0
24.11.2017 00:00:00 8,6 7,7 40 21 54 29 ZW 997,9 19 0,0
23.11.2017 23:00:00 8,1 7,9 36 19 54 29 ZW 997,2 16 0,0
23.11.2017 22:00:00 8,0 7,5 36 19 61 33 ZZW 996,4 16 0,4
23.11.2017 21:00:00 7,7 7,6 36 19 65 35 ZZW 995,8 7 0,3
23.11.2017 20:00:00 8,1 6,9 47 25 76 41 ZZW 995,6 11 0,0
23.11.2017 19:00:00 8,1 7,0 47 26 74 40 Z 995,8 11 0,0
23.11.2017 18:00:00 7,9 7,1 54 29 68 37 Z 995,2 10 0,0
23.11.2017 17:00:00 7,8 7,6 47 25 65 35 Z 995,5 9 0,0
23.11.2017 16:00:00 7,9 7,6 45 24 66 35 Z 996,5 10 0,0
23.11.2017 15:00:00 8,0 7,7 47 25 65 35 Z 997,2 9 0,0
23.11.2017 14:00:00 7,9 7,7 47 25 68 37 ZZW 997,2 8 0,0
23.11.2017 13:00:00 7,9 7,7 46 25 69 38 Z 997,6 8 0,0
23.11.2017 12:00:00 8,1 7,3 54 29 68 37 ZZW 997,1 9 0,0
23.11.2017 11:00:00 8,0 7,3 47 25 65 35 ZZW 997,5 8 0,0
23.11.2017 10:00:00 8,0 7,7 40 22 56 30 ZZW 998,2 8 0,0
23.11.2017 09:00:00 7,8 7,7 40 21 58 31 ZZW 998,3 7 0,0
23.11.2017 08:00:00 7,9 7,4 40 21 58 31 ZZW 998,3 7 0,0
23.11.2017 07:00:00 8,1 8,0 38 20 56 31 Z 998,2 5 0,0
23.11.2017 06:00:00 8,3 8,2 36 19 50 27 ZZW 998,5 4,3 0,0
23.11.2017 05:00:00 8,1 8,0 36 19 54 29 Z 998,4 3,6 0,0
23.11.2017 04:00:00 7,8 7,6 35 19 69 38 Z 998,6 3,6 0,5
23.11.2017 03:00:00 7,4 7,3 47 25 72 39 Z 998,6 5 0,0
23.11.2017 02:00:00 6,9 6,7 50 27 72 39 Z 998,8 3,8 0,1
23.11.2017 01:00:00 6,5 6,3 58 31 74 40 ZZO 1000,0 4,2 1,0
23.11.2017 00:00:00 6,0 5,8 58 31 76 41 ZZO 1000,4 4,0 0,5
22.11.2017 23:00:00 5,6 5,4 58 31 79 43 ZZO 1001,9 3,9 1,0
22.11.2017 22:00:00 5,2 4,5 62 33 77 42 ZZO 1002,9 5 0,9
22.11.2017 21:00:00 5,0 4,6 61 33 76 41 ZZO 1003,7 3,4 0,3
22.11.2017 20:00:00 5,2 3,6 61 33 76 41 ZZO 1004,7 4,5 0,0
22.11.2017 19:00:00 5,6 1,9 53 29 67 36 ZO 1005,3 18 0,0
22.11.2017 18:00:00 5,1 1,8 54 29 65 35 ZZO 1006,3 17 0,2
22.11.2017 17:00:00 4,4 1,8 47 25 65 35 ZZO 1006,9 8 0,0
22.11.2017 16:00:00 5,2 0,3 43 23 54 29 ZO 1007,3 23 0,0
22.11.2017 15:00:00 4,6 1,6 43 23 54 29 ZO 1007,9 15 0,0
22.11.2017 14:00:00 4,9 1,1 40 21 54 29 ZZO 1008,5 50 0,0
22.11.2017 13:00:00 4,3 1,3 39 21 55 30 ZZO 1009,0 33 0,0
22.11.2017 12:00:00 4,7 1,2 40 21 50 27 ZZO 1009,2 50 0,0
22.11.2017 11:00:00 2,2 1,9 25 14 47 25 ONO 1010,1 35 0,0
22.11.2017 10:00:00 2,2 2,0 26 14 47 26 OZO 1010,7 50 0,4
22.11.2017 09:00:00 2,2 -0,3 22 12 29 16 O 1010,8 50 0,0
22.11.2017 08:00:00 1,6 -1,1 22 12 29 16 OZO 1010,9 50 0,0
22.11.2017 07:00:00 0,7 -2,2 13 7 26 14 O 1011,3 50 0,0
22.11.2017 06:00:00 0,4 -2,0 14 8 22 12 O 1011,6 50 0,0
22.11.2017 05:00:00 -0,6 -2,3 4 2 14 8 Z 1011,8 50 0,0
22.11.2017 04:00:00 -1,0 -1,7 8 4 12 7 NO 1012,0 50 0,0
22.11.2017 03:00:00 -1,6 -2,3 4 2 7 4 NNW 1012,4 50 0,0
22.11.2017 02:00:00 -1,7 -2,3 0 0 14 8 N 1012,5 50 0,0
22.11.2017 01:00:00 -1,7 -2,2 6 4 13 7 NNO 1012,5 50 0,0
22.11.2017 00:00:00 -1,7 -2,3 7 4 14 8 NW 1012,7 50 0,0
21.11.2017 23:00:00 -1,8 -2,5 11 6 18 10 N 1012,7 50 0,0
21.11.2017 22:00:00 -1,9 -2,6 10 5 17 9 N 1012,5 50 0,0
21.11.2017 21:00:00 -2,0 -2,8 11 6 18 10 N 1011,9 50 0,0
21.11.2017 20:00:00 -1,8 -2,8 11 6 25 14 N 1012,1 50 0,0
21.11.2017 19:00:00 -1,8 -2,9 12 7 33 18 N 1012,1 50 0,0
21.11.2017 18:00:00 -1,8 -2,9 14 8 36 19 N 1011,8 50 0,0
21.11.2017 17:00:00 -1,4 -2,7 25 14 36 19 NNW 1011,6 50 0,0
21.11.2017 16:00:00 -1,2 -2,8 18 10 36 19 NNW 1011,3 50 0,0
21.11.2017 15:00:00 -1,2 -3,1 18 10 40 21 N 1010,8 50 0,0
21.11.2017 14:00:00 -0,1 -2,5 25 14 40 21 NNW 1010,7 50 0,0
21.11.2017 13:00:00 -0,1 -2,4 24 13 41 22 N 1010,4 50 0,0
21.11.2017 12:00:00 0,3 -1,4 22 12 36 19 N 1010,4 50 0,0
21.11.2017 11:00:00 1,1 -1,0 18 10 32 18 N 1010,5 50 0,0
21.11.2017 10:00:00 0,2 -1,5 21 11 34 18 N 1010,3 50 0,0
21.11.2017 09:00:00 0,1 -1,4 18 10 29 16 N 1009,9 50 0,0
21.11.2017 08:00:00 0,0 -0,7 18 10 29 16 N 1009,7 50 0,0
21.11.2017 07:00:00 -0,1 -0,3 17 9 27 14 N 1009,6 8 0,0
21.11.2017 06:00:00 0,1 -0,2 14 8 25 14 NNW 1009,5 4,8 0,1
21.11.2017 05:00:00 0,3 -0,3 14 8 25 14 N 1009,6 9 0,0
21.11.2017 04:00:00 0,7 -0,1 14 8 24 13 NNW 1009,5 22 0,0
21.11.2017 03:00:00 0,8 -0,1 18 10 22 12 NNW 1009,5 45 0,0
21.11.2017 02:00:00 0,4 -0,9 11 6 22 12 N 1009,4 50 0,0
21.11.2017 01:00:00 0,4 -0,9 13 7 22 12 N 1009,4 50 0,0
21.11.2017 00:00:00 0,5 -0,7 11 6 25 14 N 1009,5 50 0,0
20.11.2017 23:00:00 0,5 -0,7 14 8 29 16 NNW 1009,7 50 0,0
20.11.2017 22:00:00 0,1 -1,1 16 9 36 19 NNW 1009,4 50 0,0
20.11.2017 21:00:00 0,1 -1,1 22 12 40 21 N 1009,0 50 0,0
20.11.2017 20:00:00 0,2 -1,0 22 12 40 21 NNW 1008,9 50 0,0
20.11.2017 19:00:00 0,3 -1,0 29 16 38 21 NNW 1008,8 50 0,0
20.11.2017 18:00:00 0,3 -1,3 18 10 40 21 N 1008,6 50 0,0
20.11.2017 17:00:00 0,3 -1,4 25 14 47 25 NNW 1008,3 18 0,0
20.11.2017 16:00:00 0,1 -2,1 26 14 47 25 NNW 1008,0 50 0,0
20.11.2017 15:00:00 0,5 -1,9 32 18 47 25 NNW 1007,7 50 0,0
20.11.2017 14:00:00 1,1 -1,7 29 16 43 23 NNW 1007,4 50 0,0
20.11.2017 13:00:00 0,9 -1,8 27 14 45 25 NNW 1007,0 50 0,0
20.11.2017 12:00:00 0,3 -2,0 29 16 47 25 NNW 1006,7 50 0,0
20.11.2017 11:00:00 0,4 -1,7 29 16 43 23 NNW 1006,6 50 0,0
20.11.2017 10:00:00 0,5 -1,6 23 12 37 20 NNW 1006,3 49 0,0
20.11.2017 09:00:00 0,1 -1,7 18 10 36 19 N 1005,8 50 0,0
20.11.2017 08:00:00 0,4 -1,7 18 10 40 21 N 1005,1 50 0,0
20.11.2017 07:00:00 0,6 -1,2 19 11 40 22 N 1004,5 50 0,0
20.11.2017 06:00:00 0,5 -0,4 22 12 43 23 N 1003,7 11 0,0
20.11.2017 05:00:00 0,7 -0,1 22 12 43 23 N 1003,4 13 0,2
20.11.2017 04:00:00 0,5 -0,4 23 12 41 22 NNW 1002,8 50 0,0
20.11.2017 03:00:00 0,0 -1,6 25 14 43 23 NNW 1002,6 50 0,0
20.11.2017 02:00:00 -0,2 -2,0 25 14 40 21 NW 1002,5 50 0,0
20.11.2017 01:00:00 -0,3 -2,5 25 14 40 22 NW 1002,6 50 0,0
20.11.2017 00:00:00 -0,3 -2,8 25 14 43 23 NW 1002,5 50 0,0
19.11.2017 23:00:00 -0,2 -2,8 29 16 43 23 NNW 1002,6 50 0,0
19.11.2017 22:00:00 -0,5 -3,2 29 15 45 24 NNW 1002,3 50 0,0
19.11.2017 21:00:00 -0,6 -2,9 32 18 43 23 NNW 1001,9 50 0,0
19.11.2017 20:00:00 -0,7 -3,2 22 12 36 19 NNW 1001,5 50 0,0
19.11.2017 19:00:00 -1,1 -3,5 19 10 36 19 NNW 1001,1 50 0,0
19.11.2017 18:00:00 -1,7 -4,2 22 12 43 23 N 1000,9 50 0,0
19.11.2017 17:00:00 -1,4 -3,9 25 14 43 23 N 1000,3 50 0,0
19.11.2017 16:00:00 -0,5 -3,1 24 13 49 26 N 999,8 50 0,0
19.11.2017 15:00:00 0,3 -2,3 25 14 50 27 N 998,9 50 0,0
19.11.2017 14:00:00 1,2 -1,2 32 18 50 27 NNO 998,3 50 0,0
19.11.2017 13:00:00 1,7 -0,9 36 19 55 30 NNO 997,8 50 0,0
19.11.2017 12:00:00 1,9 0,0 40 21 58 31 NNO 997,2 50 0,0
19.11.2017 11:00:00 2,6 1,3 40 21 58 31 NNO 996,8 50 0,0
19.11.2017 10:00:00 2,7 1,5 38 21 51 28 NNO 996,2 50 0,0
19.11.2017 09:00:00 2,9 1,4 36 19 43 23 NO 995,6 50 0,0
19.11.2017 08:00:00 3,4 1,4 36 19 43 23 NO 995,2 50 0,0
19.11.2017 07:00:00 3,7 2,6 34 18 41 22 NNO 994,7 50 0,0
19.11.2017 06:00:00 4,6 1,3 25 14 32 18 NO 994,3 50 0,0
19.11.2017 05:00:00 4,5 2,0 22 12 29 16 ONO 994,1 50 0,0
19.11.2017 04:00:00 4,5 -0,7 6 4 10 5 OZO 994,2 50 0,0
19.11.2017 03:00:00 4,2 0,0 4 2 7 4 Z 994,1 50 0,0
19.11.2017 02:00:00 3,6 1,3 4 2 14 8 OZO 994,3 50 0,0

tt = temperatuur
td = dauwpunt
ff = windsnelheid
fx = windstoten
dd = windrichting
ppp = luchtdruk
vv = zicht
rr = neerslag

Weerstations in de omgeving